Location: Newark
(31.5350°N, 35.0986°E)
Time: 13:29:03
(UTC+00:00)

SR - Pass Details

Date: 21 October 2019
Orbit: 573 x 882 km, 66.7° (Epoch: 21 November)

Event Time Altitude Azimuth Distance (km) Brightness Sun altitude
Rises 04:38:54 0° 338° (NNW) 3,473 ? 9.9°
Reaches altitude 10° 04:41:26 10° 341° (NNW) 2,541 ? 10.4°
Maximum altitude 04:47:20 66° 63° (ENE) 954 ? 11.6°
Drops below altitude 10° 04:53:05 10° 145° (SE) 2,475 ? 12.7°
Sets 04:55:31 0° 148° (SSE) 3,377 ? 13.2°
